BOX451 KJFK-EDDF

Flight info

Callsign BOX451
Flight time N/A
Altitude 33000
Route MERIT DCT HFD DCT PUT DCT WITCH DCT ALLEX N565B TUDEP/M083F350 NATT NETKI/N0468F350 DCT BOFUM/N0473F370 Q37 MALUD UL975 WAL M16 DOLAS DCT NAVPI DCT SOGPO DCT DIXAT DIXAT1A
Aircraft B77L/H-BOEING777200LREQUIPMENTSDE1E3FGHIJ1J3J4J5M1P2RWXY/LB1D1

Departure

Time 2026-05-06 13:25
Airport John F. Kennedy International Airport (KJFK)

Arrival

Time N/A
Airport Frankfurt Main Airport (EDDF)
Time Latitude Longitude Altitude Speed Heading
2026-05-06 12:41 40.65042 -73.80065 26 ft 0 kts 165°
2026-05-06 13:11 40.65061 -73.80071 28 ft 4 kts 166°
2026-05-06 13:12 40.65078 -73.80076 30 ft 4 kts 167°
2026-05-06 13:12 40.65104 -73.80085 31 ft 4 kts 161°
2026-05-06 13:12 40.65126 -73.80099 31 ft 4 kts 115°
2026-05-06 13:12 40.65129 -73.80113 31 ft 1 kts 91°
2026-05-06 13:13 40.65129 -73.80114 31 ft 0 kts 91°
2026-05-06 13:15 40.65129 -73.80101 31 ft 2 kts 91°
2026-05-06 13:15 40.65128 -73.80079 30 ft 2 kts 91°
2026-05-06 13:16 40.65128 -73.80048 28 ft 5 kts 91°
2026-05-06 13:16 40.65127 -73.79994 26 ft 7 kts 88°
2026-05-06 13:16 40.65145 -73.79922 29 ft 9 kts 63°
2026-05-06 13:16 40.65179 -73.79840 30 ft 10 kts 60°
2026-05-06 13:17 40.65212 -73.79755 30 ft 10 kts 79°
2026-05-06 13:17 40.65172 -73.79686 28 ft 10 kts 145°
2026-05-06 13:17 40.65165 -73.79618 27 ft 8 kts 64°
2026-05-06 13:17 40.65194 -73.79547 26 ft 9 kts 61°
2026-05-06 13:18 40.65226 -73.79473 28 ft 9 kts 60°
2026-05-06 13:18 40.65259 -73.79396 28 ft 11 kts 60°
2026-05-06 13:18 40.65288 -73.79287 28 ft 15 kts 83°
2026-05-06 13:18 40.65272 -73.79147 28 ft 16 kts 107°
2026-05-06 13:19 40.65239 -73.79008 28 ft 16 kts 108°
2026-05-06 13:19 40.65217 -73.78866 28 ft 16 kts 89°
2026-05-06 13:19 40.65249 -73.78728 28 ft 16 kts 63°
2026-05-06 13:19 40.65303 -73.78600 29 ft 18 kts 59°
2026-05-06 13:20 40.65358 -73.78451 28 ft 18 kts 63°
2026-05-06 13:20 40.65428 -73.78311 27 ft 18 kts 59°
2026-05-06 13:20 40.65487 -73.78167 29 ft 15 kts 70°
2026-05-06 13:20 40.65459 -73.78043 27 ft 15 kts 120°
2026-05-06 13:21 40.65404 -73.77920 31 ft 18 kts 121°
2026-05-06 13:21 40.65332 -73.77761 29 ft 22 kts 121°
2026-05-06 13:21 40.65247 -73.77574 24 ft 24 kts 120°
2026-05-06 13:21 40.65161 -73.77383 27 ft 24 kts 121°
2026-05-06 13:22 40.65074 -73.77192 29 ft 24 kts 121°
2026-05-06 13:22 40.64987 -73.77002 29 ft 24 kts 121°
2026-05-06 13:22 40.64925 -73.76867 31 ft 12 kts 120°
2026-05-06 13:22 40.64884 -73.76776 30 ft 12 kts 121°
2026-05-06 13:23 40.64884 -73.76692 32 ft 10 kts 33°
2026-05-06 13:23 40.64959 -73.76636 31 ft 15 kts 30°
2026-05-06 13:23 40.65048 -73.76568 26 ft 15 kts 30°
2026-05-06 13:23 40.65095 -73.76478 26 ft 11 kts 102°
2026-05-06 13:24 40.65063 -73.76394 27 ft 10 kts 121°
2026-05-06 13:24 40.65031 -73.76354 27 ft 4 kts 183°
2026-05-06 13:24 40.64967 -73.76400 27 ft 25 kts 210°
2026-05-06 13:24 40.64610 -73.76680 25 ft 95 kts 210°
2026-05-06 13:25 40.63897 -73.77234 30 ft 152 kts 211°
2026-05-06 13:25 40.62890 -73.78016 297 ft 173 kts 210°
2026-05-06 13:25 40.61839 -73.78894 797 ft 182 kts 214°
2026-05-06 13:25 40.60903 -73.79914 1709 ft 164 kts 221°
2026-05-06 13:26 40.60048 -73.80850 2441 ft 161 kts 221°
2026-05-06 13:26 40.59118 -73.81803 2767 ft 179 kts 220°
2026-05-06 13:26 40.58079 -73.82855 3068 ft 198 kts 219°
2026-05-06 13:26 40.56933 -73.84040 3391 ft 216 kts 220°
2026-05-06 13:27 40.55674 -73.85135 3960 ft 223 kts 207°
2026-05-06 13:27 40.54224 -73.85981 4500 ft 232 kts 207°
2026-05-06 13:27 40.52754 -73.86886 5198 ft 233 kts 205°
2026-05-06 13:27 40.51119 -73.87209 5714 ft 250 kts 174°
2026-05-06 13:28 40.49514 -73.86336 6466 ft 261 kts 154°
2026-05-06 13:28 40.48072 -73.84832 7137 ft 264 kts 144°
2026-05-06 13:28 40.46890 -73.82908 7701 ft 281 kts 125°
2026-05-06 13:28 40.46279 -73.80415 8320 ft 297 kts 101°
2026-05-06 13:29 40.46518 -73.77658 8859 ft 313 kts 73°
2026-05-06 13:29 40.47627 -73.75152 9424 ft 322 kts 48°
2026-05-06 13:29 40.49403 -73.73379 9976 ft 321 kts 27°
2026-05-06 13:29 40.51413 -73.72022 10377 ft 332 kts 23°
2026-05-06 13:30 40.53576 -73.70678 10539 ft 354 kts 22°
2026-05-06 13:30 40.55873 -73.69256 10723 ft 376 kts 23°
2026-05-06 13:30 40.58301 -73.67725 10887 ft 399 kts 24°
2026-05-06 13:30 40.60851 -73.66080 11250 ft 414 kts 24°
2026-05-06 13:31 40.63464 -73.64365 11803 ft 425 kts 25°
2026-05-06 13:31 40.66121 -73.62599 12556 ft 430 kts 25°
2026-05-06 13:31 40.68798 -73.60807 13413 ft 433 kts 25°
2026-05-06 13:31 40.71491 -73.58998 14194 ft 437 kts 25°
2026-05-06 13:32 40.74219 -73.57164 14928 ft 441 kts 25°
2026-05-06 13:32 40.76966 -73.55315 15653 ft 445 kts 25°
2026-05-06 13:32 40.79733 -73.53452 16382 ft 448 kts 24°
2026-05-06 13:32 40.82526 -73.51571 17057 ft 453 kts 24°
2026-05-06 13:33 40.85352 -73.49666 17712 ft 458 kts 24°
2026-05-06 13:33 40.88166 -73.47769 18373 ft 462 kts 24°
2026-05-06 13:33 40.91040 -73.45828 18991 ft 464 kts 24°
2026-05-06 13:33 40.93926 -73.43877 19617 ft 467 kts 24°
2026-05-06 13:34 40.96827 -73.41914 20240 ft 469 kts 23°
2026-05-06 13:34 40.99739 -73.39941 20852 ft 473 kts 23°
2026-05-06 13:34 41.02683 -73.37947 21378 ft 478 kts 23°
2026-05-06 13:34 41.05655 -73.35931 21927 ft 482 kts 22°
2026-05-06 13:35 41.08647 -73.33898 22502 ft 484 kts 22°
2026-05-06 13:35 41.11655 -73.31852 23092 ft 487 kts 22°
2026-05-06 13:35 41.14679 -73.29793 23625 ft 490 kts 22°
2026-05-06 13:35 41.17716 -73.27723 24122 ft 492 kts 22°
2026-05-06 13:36 41.20775 -73.25635 24589 ft 496 kts 22°
2026-05-06 13:36 41.23863 -73.23526 25048 ft 499 kts 22°
2026-05-06 13:36 41.26958 -73.21409 25515 ft 502 kts 22°
2026-05-06 13:36 41.30071 -73.19278 25989 ft 504 kts 22°
2026-05-06 13:37 41.33188 -73.17134 26459 ft 506 kts 24°
2026-05-06 13:37 41.36184 -73.14587 26861 ft 517 kts 34°
2026-05-06 13:37 41.38851 -73.11330 27305 ft 526 kts 44°
2026-05-06 13:37 41.41150 -73.07504 27722 ft 533 kts 54°
2026-05-06 13:38 41.43032 -73.03288 28139 ft 537 kts 58°
2026-05-06 13:38 41.44873 -72.98936 28529 ft 540 kts 58°
2026-05-06 13:38 41.46722 -72.94560 28887 ft 543 kts 58°
2026-05-06 13:38 41.48605 -72.90165 29262 ft 545 kts 58°
2026-05-06 13:39 41.50509 -72.85777 29774 ft 545 kts 57°
2026-05-06 13:39 41.52417 -72.81421 30293 ft 543 kts 57°
2026-05-06 13:39 41.54322 -72.77085 30778 ft 540 kts 57°
2026-05-06 13:39 41.56221 -72.72760 31233 ft 540 kts 57°
2026-05-06 13:40 41.58117 -72.68433 31639 ft 539 kts 57°
2026-05-06 13:40 41.59989 -72.64147 32019 ft 539 kts 56°
2026-05-06 13:40 41.61874 -72.59822 32415 ft 538 kts 56°
2026-05-06 13:40 41.63753 -72.55503 32912 ft 535 kts 56°
2026-05-06 13:41 41.65644 -72.51198 32897 ft 539 kts 55°
2026-05-06 13:41 41.69509 -72.42634 32901 ft 535 kts 55°
2026-05-06 13:42 41.73356 -72.34141 32907 ft 532 kts 55°
2026-05-06 13:42 41.77174 -72.25644 32908 ft 531 kts 55°
2026-05-06 13:43 41.80966 -72.17156 32931 ft 530 kts 56°
2026-05-06 13:43 41.84752 -72.08658 32929 ft 531 kts 56°
2026-05-06 13:44 41.88530 -72.00153 32924 ft 531 kts 56°
2026-05-06 13:44 41.92315 -71.91614 32923 ft 533 kts 56°
2026-05-06 13:45 41.96463 -71.83424 32942 ft 527 kts 46°
2026-05-06 13:45 42.04107 -71.73031 32933 ft 522 kts 39°
2026-05-06 13:46 42.09371 -71.66261 32933 ft 523 kts 39°
2026-05-06 13:46 42.14600 -71.59439 32943 ft 523 kts 39°
2026-05-06 13:47 42.19816 -71.52577 32913 ft 524 kts 39°
2026-05-06 13:47 42.25021 -71.45708 32906 ft 523 kts 39°
2026-05-06 13:48 42.30225 -71.38829 32936 ft 523 kts 39°
2026-05-06 13:48 42.35431 -71.31936 32899 ft 523 kts 40°
2026-05-06 13:49 42.40621 -71.25045 32889 ft 523 kts 40°
2026-05-06 13:49 42.45785 -71.18172 32910 ft 524 kts 40°
2026-05-06 13:50 42.50993 -71.11223 32912 ft 525 kts 40°
2026-05-06 13:50 42.56191 -71.04270 32907 ft 525 kts 40°
2026-05-06 13:51 42.61381 -70.97308 32909 ft 525 kts 40°
2026-05-06 13:51 42.66571 -70.90290 32910 ft 527 kts 43°
2026-05-06 13:52 42.71099 -70.82468 32897 ft 532 kts 54°
2026-05-06 13:52 42.75074 -70.73960 32900 ft 533 kts 55°
2026-05-06 13:53 42.79047 -70.65422 32902 ft 535 kts 55°
2026-05-06 13:53 42.83067 -70.56870 32892 ft 535 kts 55°
2026-05-06 13:54 42.86410 -70.49781 32877 ft 534 kts 54°
2026-05-06 13:54 42.90431 -70.41247 32890 ft 534 kts 54°
2026-05-06 13:55 42.94436 -70.32713 32901 ft 534 kts 55°
2026-05-06 13:55 42.98436 -70.24161 32892 ft 533 kts 55°
2026-05-06 13:56 43.02394 -70.15670 32889 ft 531 kts 54°
2026-05-06 13:56 43.06342 -70.07175 32889 ft 528 kts 54°
2026-05-06 13:57 43.10263 -69.98718 32897 ft 525 kts 54°
2026-05-06 13:57 43.14162 -69.90286 32910 ft 523 kts 54°
2026-05-06 13:58 43.18044 -69.81866 32910 ft 522 kts 55°
2026-05-06 13:58 43.21913 -69.73449 32922 ft 522 kts 55°
2026-05-06 13:59 43.25782 -69.65008 32921 ft 522 kts 55°
2026-05-06 13:59 43.29648 -69.56549 32925 ft 523 kts 55°
2026-05-06 14:00 43.33484 -69.48134 32943 ft 524 kts 55°
2026-05-06 14:00 43.37346 -69.39634 32937 ft 524 kts 56°
2026-05-06 14:01 43.41212 -69.31100 32932 ft 525 kts 56°
2026-05-06 14:01 43.45064 -69.22573 32941 ft 523 kts 56°
2026-05-06 14:02 43.48897 -69.14064 32938 ft 524 kts 56°
2026-05-06 14:02 43.52707 -69.05582 32938 ft 523 kts 56°
2026-05-06 14:03 43.56537 -68.97030 32939 ft 524 kts 56°
2026-05-06 14:03 43.60362 -68.88463 32952 ft 524 kts 56°
2026-05-06 14:04 43.64189 -68.79866 32955 ft 527 kts 56°
2026-05-06 14:04 43.68031 -68.71211 32927 ft 529 kts 56°
2026-05-06 14:05 43.71848 -68.62587 32942 ft 529 kts 56°
2026-05-06 14:05 43.75688 -68.53883 32959 ft 530 kts 56°
2026-05-06 14:06 43.79525 -68.45160 32959 ft 531 kts 56°
2026-05-06 14:06 43.83357 -68.36422 32959 ft 531 kts 56°
2026-05-06 14:07 43.87189 -68.27659 32972 ft 531 kts 56°
2026-05-06 14:07 43.91014 -68.18885 32943 ft 531 kts 56°
2026-05-06 14:08 43.94804 -68.10165 32955 ft 530 kts 57°
2026-05-06 14:08 43.98597 -68.01409 32961 ft 527 kts 57°
2026-05-06 14:09 44.02362 -67.92693 32972 ft 525 kts 57°
2026-05-06 14:09 44.06112 -67.83985 32967 ft 523 kts 57°
2026-05-06 14:10 44.09841 -67.75300 32971 ft 522 kts 57°
2026-05-06 14:10 44.13542 -67.66656 32982 ft 522 kts 57°
2026-05-06 14:11 44.17261 -67.57943 32976 ft 523 kts 57°
2026-05-06 14:11 44.20982 -67.49197 32957 ft 524 kts 57°
2026-05-06 14:12 44.24670 -67.40503 32981 ft 524 kts 57°
2026-05-06 14:12 44.28380 -67.31728 33001 ft 525 kts 57°
2026-05-06 14:13 44.32085 -67.22940 33001 ft 525 kts 57°
2026-05-06 14:13 44.35784 -67.14138 32978 ft 525 kts 57°
2026-05-06 14:14 44.39479 -67.05321 32985 ft 526 kts 57°
2026-05-06 14:14 44.43520 -66.96846 32985 ft 522 kts 47°
2026-05-06 14:15 44.48257 -66.89259 32988 ft 520 kts 45°
2026-05-06 14:15 44.53066 -66.81644 32997 ft 520 kts 45°
2026-05-06 14:16 44.57826 -66.74007 32992 ft 519 kts 45°
2026-05-06 14:16 44.62549 -66.66349 33002 ft 518 kts 46°
2026-05-06 14:17 44.67248 -66.58697 33000 ft 517 kts 46°
2026-05-06 14:17 44.71943 -66.51032 33006 ft 516 kts 46°
2026-05-06 14:18 44.76631 -66.43366 33010 ft 516 kts 46°
2026-05-06 14:18 44.81272 -66.35755 32990 ft 516 kts 46°
2026-05-06 14:19 44.85946 -66.28070 32988 ft 516 kts 46°
2026-05-06 14:19 44.90619 -66.20366 32999 ft 517 kts 46°
2026-05-06 14:20 44.95289 -66.12645 33003 ft 517 kts 46°
2026-05-06 14:20 44.99933 -66.04944 33007 ft 518 kts 46°
2026-05-06 14:21 45.04620 -65.97153 33013 ft 519 kts 46°
2026-05-06 14:21 45.09297 -65.89356 33005 ft 520 kts 46°
2026-05-06 14:22 45.13974 -65.81537 33004 ft 520 kts 46°
2026-05-06 14:22 45.18654 -65.73691 33002 ft 521 kts 46°
2026-05-06 14:23 45.23326 -65.65838 33002 ft 521 kts 46°
2026-05-06 14:23 45.27968 -65.58012 33015 ft 521 kts 46°
2026-05-06 14:24 45.32636 -65.50119 33014 ft 521 kts 46°
2026-05-06 14:24 45.37300 -65.42213 33005 ft 521 kts 46°
2026-05-06 14:25 45.41954 -65.34301 33009 ft 521 kts 47°
2026-05-06 14:25 45.46586 -65.26403 33007 ft 521 kts 47°
2026-05-06 14:26 45.51226 -65.18470 33001 ft 522 kts 47°
2026-05-06 14:26 45.55879 -65.10493 33010 ft 522 kts 47°
2026-05-06 14:27 45.60491 -65.02564 32990 ft 522 kts 47°
2026-05-06 14:27 45.65126 -64.94571 33000 ft 522 kts 47°
2026-05-06 14:28 45.69757 -64.86562 32990 ft 521 kts 47°
2026-05-06 14:28 45.74377 -64.78551 32991 ft 521 kts 47°
2026-05-06 14:29 45.78984 -64.70538 33006 ft 521 kts 47°
2026-05-06 14:29 45.83562 -64.62552 32985 ft 522 kts 47°
2026-05-06 14:30 45.88170 -64.54494 33007 ft 523 kts 47°
2026-05-06 14:30 45.92792 -64.46387 32961 ft 525 kts 47°
2026-05-06 14:31 45.97410 -64.38262 32977 ft 525 kts 47°
2026-05-06 14:31 46.02022 -64.30121 32965 ft 524 kts 47°
2026-05-06 14:32 46.06616 -64.21990 32968 ft 523 kts 47°
2026-05-06 14:32 46.11196 -64.13861 32974 ft 522 kts 47°
2026-05-06 14:33 46.15738 -64.05776 32955 ft 521 kts 47°
2026-05-06 14:33 46.20296 -63.97639 32964 ft 519 kts 47°
2026-05-06 14:34 46.24826 -63.89526 32979 ft 517 kts 47°
2026-05-06 14:34 46.29330 -63.81440 32967 ft 516 kts 47°
2026-05-06 14:35 46.33827 -63.73343 32973 ft 516 kts 47°
2026-05-06 14:35 46.38314 -63.65239 32973 ft 516 kts 47°
2026-05-06 14:36 46.42773 -63.57162 32977 ft 517 kts 47°
2026-05-06 14:36 46.47262 -63.49008 32972 ft 518 kts 48°
2026-05-06 14:37 46.51752 -63.40826 32975 ft 518 kts 48°
2026-05-06 14:37 46.56252 -63.32602 32992 ft 519 kts 48°
2026-05-06 14:38 46.60748 -63.24361 32976 ft 520 kts 48°
2026-05-06 14:38 46.65236 -63.16108 32974 ft 520 kts 48°
2026-05-06 14:39 46.69695 -63.07886 32952 ft 520 kts 48°
2026-05-06 14:39 46.74164 -62.99620 32969 ft 520 kts 48°
2026-05-06 14:40 46.78630 -62.91337 32969 ft 519 kts 49°
2026-05-06 14:40 46.83089 -62.83040 32973 ft 518 kts 49°
2026-05-06 14:41 46.87540 -62.74734 32986 ft 518 kts 49°
2026-05-06 14:41 46.91988 -62.66408 32978 ft 519 kts 49°
2026-05-06 14:42 46.96403 -62.58120 32984 ft 519 kts 49°
2026-05-06 14:42 47.00839 -62.49766 32984 ft 520 kts 49°
2026-05-06 14:43 47.05273 -62.41392 32983 ft 520 kts 49°
2026-05-06 14:43 47.08989 -62.34355 32986 ft 520 kts 49°
2026-05-06 14:44 47.13391 -62.25992 32992 ft 521 kts 49°
2026-05-06 14:45 47.20028 -62.13340 32998 ft 521 kts 49°
2026-05-06 14:45 47.24462 -62.04854 32966 ft 522 kts 50°
2026-05-06 14:46 47.28857 -61.96416 32991 ft 521 kts 50°
2026-05-06 14:46 47.33264 -61.87927 32992 ft 521 kts 50°
2026-05-06 14:47 47.37699 -61.79360 33008 ft 522 kts 51°
2026-05-06 14:47 47.42069 -61.70891 33010 ft 522 kts 51°
2026-05-06 14:48 47.46465 -61.62346 33008 ft 522 kts 51°
2026-05-06 14:48 47.50861 -61.53774 33004 ft 522 kts 51°
2026-05-06 14:49 47.55246 -61.45197 33000 ft 522 kts 51°
2026-05-06 14:49 47.59625 -61.36605 33004 ft 522 kts 51°
2026-05-06 14:50 47.64002 -61.27989 33022 ft 522 kts 51°
2026-05-06 14:50 47.68371 -61.19363 33005 ft 523 kts 51°
2026-05-06 14:51 47.72741 -61.10707 33006 ft 523 kts 51°
2026-05-06 14:51 47.77101 -61.02043 33004 ft 523 kts 51°
2026-05-06 14:52 47.81458 -60.93360 32994 ft 524 kts 52°
2026-05-06 14:52 47.85810 -60.84656 33007 ft 524 kts 52°
2026-05-06 14:53 47.90160 -60.75929 33006 ft 525 kts 52°
2026-05-06 14:53 47.94509 -60.67176 33024 ft 525 kts 52°
2026-05-06 14:54 47.98834 -60.58444 33007 ft 527 kts 52°
2026-05-06 14:54 48.03191 -60.49620 33010 ft 527 kts 52°
2026-05-06 14:55 48.07541 -60.40779 33009 ft 528 kts 52°
2026-05-06 14:55 48.11895 -60.31903 32993 ft 529 kts 52°
2026-05-06 14:56 48.16246 -60.23003 33020 ft 529 kts 52°
2026-05-06 14:56 48.20564 -60.14141 33029 ft 530 kts 52°
2026-05-06 14:57 48.24902 -60.05209 33038 ft 530 kts 52°
2026-05-06 14:57 48.29244 -59.96240 33035 ft 530 kts 52°
2026-05-06 14:58 48.33568 -59.87279 33031 ft 530 kts 52°
2026-05-06 14:58 48.37857 -59.78361 33030 ft 529 kts 53°
2026-05-06 14:59 48.42158 -59.69387 33033 ft 528 kts 53°
2026-05-06 14:59 48.46456 -59.60391 33028 ft 528 kts 53°
2026-05-06 15:00 48.50741 -59.51392 33029 ft 528 kts 53°
2026-05-06 15:00 48.55020 -59.42375 33034 ft 528 kts 53°
2026-05-06 15:01 48.59289 -59.33351 33031 ft 528 kts 53°
2026-05-06 15:01 48.63521 -59.24372 33026 ft 528 kts 53°
2026-05-06 15:02 48.67781 -59.15306 33036 ft 528 kts 54°
2026-05-06 15:02 48.72033 -59.06226 33059 ft 528 kts 54°
2026-05-06 15:03 48.76276 -58.97133 33051 ft 529 kts 54°
2026-05-06 15:03 48.80493 -58.88068 33048 ft 529 kts 54°
2026-05-06 15:04 48.84723 -58.78942 33023 ft 529 kts 54°
2026-05-06 15:04 48.88957 -58.69778 33001 ft 529 kts 54°
2026-05-06 15:05 48.93163 -58.60643 33039 ft 526 kts 55°
2026-05-06 15:05 48.97341 -58.51535 33039 ft 524 kts 55°
2026-05-06 15:06 49.01501 -58.42437 33047 ft 522 kts 55°
2026-05-06 15:06 49.05642 -58.33352 33033 ft 521 kts 55°
2026-05-06 15:07 49.09769 -58.24266 33041 ft 521 kts 55°
2026-05-06 15:07 49.13887 -58.15170 33041 ft 521 kts 55°
2026-05-06 15:08 49.17977 -58.06103 33041 ft 521 kts 55°
2026-05-06 15:08 49.22095 -57.96944 33040 ft 522 kts 56°
2026-05-06 15:09 49.26218 -57.87756 33035 ft 523 kts 54°
2026-05-06 15:09 49.30350 -57.78545 33029 ft 524 kts 56°
2026-05-06 15:10 49.34449 -57.69284 33027 ft 526 kts 56°
2026-05-06 15:10 49.38535 -57.60048 33012 ft 527 kts 56°
2026-05-06 15:11 49.42649 -57.50743 33001 ft 526 kts 56°
2026-05-06 15:11 49.46743 -57.41454 33008 ft 523 kts 56°
2026-05-06 15:12 49.50807 -57.32195 33001 ft 520 kts 56°
2026-05-06 15:12 49.54841 -57.22970 32990 ft 518 kts 56°
2026-05-06 15:13 49.58829 -57.13819 32999 ft 516 kts 56°
2026-05-06 15:13 49.62814 -57.04642 32998 ft 515 kts 56°
2026-05-06 15:14 49.66795 -56.95445 32998 ft 516 kts 57°
2026-05-06 15:14 49.70783 -56.86199 33001 ft 518 kts 57°
2026-05-06 15:15 49.74784 -56.76888 32990 ft 520 kts 57°
2026-05-06 15:15 49.78791 -56.67532 33005 ft 522 kts 57°
2026-05-06 15:16 49.82802 -56.58133 32980 ft 523 kts 57°
2026-05-06 15:16 49.86781 -56.48778 32988 ft 524 kts 57°
2026-05-06 15:17 49.90784 -56.39332 32974 ft 524 kts 57°
2026-05-06 15:17 49.94781 -56.29864 32969 ft 524 kts 57°
2026-05-06 15:18 49.98770 -56.20383 32974 ft 524 kts 57°
2026-05-06 15:18 50.02740 -56.10912 32974 ft 522 kts 57°
2026-05-06 15:19 50.06697 -56.01438 32972 ft 520 kts 57°
2026-05-06 15:19 50.10599 -55.92063 32974 ft 519 kts 57°
2026-05-06 15:20 50.14522 -55.82605 32972 ft 519 kts 57°
2026-05-06 15:20 50.18436 -55.73133 32973 ft 519 kts 57°
2026-05-06 15:21 50.22341 -55.63647 32971 ft 520 kts 58°
2026-05-06 15:21 50.26223 -55.54185 32964 ft 521 kts 57°
2026-05-06 15:22 50.30134 -55.44619 32960 ft 522 kts 58°
2026-05-06 15:22 50.34041 -55.35027 32983 ft 523 kts 58°
2026-05-06 15:23 50.37946 -55.25401 32980 ft 524 kts 58°
2026-05-06 15:23 50.41854 -55.15736 32981 ft 525 kts 58°
2026-05-06 15:24 50.45758 -55.06044 32975 ft 525 kts 58°
2026-05-06 15:24 50.49628 -54.96401 32970 ft 525 kts 58°
2026-05-06 15:25 50.53512 -54.86686 32970 ft 525 kts 58°
2026-05-06 15:25 50.57391 -54.76949 32969 ft 525 kts 58°
2026-05-06 15:26 50.61255 -54.67212 32976 ft 524 kts 58°
2026-05-06 15:26 50.65109 -54.57464 32979 ft 524 kts 58°
2026-05-06 15:27 50.68952 -54.47705 32985 ft 524 kts 58°
2026-05-06 15:27 50.72770 -54.37977 32976 ft 524 kts 58°
2026-05-06 15:28 50.76596 -54.28190 32977 ft 524 kts 58°
2026-05-06 15:28 50.80413 -54.18388 32976 ft 523 kts 58°
2026-05-06 15:29 50.84222 -54.08572 32989 ft 524 kts 58°
2026-05-06 15:29 50.88025 -53.98732 32982 ft 524 kts 58°
2026-05-06 15:30 50.91183 -53.90533 32978 ft 524 kts 58°
2026-05-06 15:30 50.94974 -53.80655 32987 ft 524 kts 58°
2026-05-06 15:31 50.98763 -53.70745 32994 ft 525 kts 58°
2026-05-06 15:31 51.02543 -53.60819 32966 ft 526 kts 58°
2026-05-06 15:32 51.08172 -53.45969 32971 ft 523 kts 58°
2026-05-06 15:32 51.11911 -53.36054 32975 ft 522 kts 58°
2026-05-06 15:33 51.15641 -53.26133 32990 ft 522 kts 58°
2026-05-06 15:33 51.18895 -53.15795 32981 ft 522 kts 66°
2026-05-06 15:34 51.21760 -53.05161 32989 ft 522 kts 67°
2026-05-06 15:34 51.24618 -52.94502 32981 ft 523 kts 66°
2026-05-06 15:35 51.27504 -52.83842 32993 ft 523 kts 66°
2026-05-06 15:35 51.30404 -52.73151 32985 ft 524 kts 66°
2026-05-06 15:36 51.33300 -52.62437 32991 ft 525 kts 66°
2026-05-06 15:36 51.36168 -52.51763 32991 ft 525 kts 66°
2026-05-06 15:37 51.39040 -52.41018 32995 ft 524 kts 66°
2026-05-06 15:37 51.41898 -52.30276 32987 ft 523 kts 66°
2026-05-06 15:38 51.44739 -52.19545 32991 ft 522 kts 66°
2026-05-06 15:38 51.47565 -52.08826 32996 ft 521 kts 66°
2026-05-06 15:39 51.50359 -51.98178 33007 ft 521 kts 66°
2026-05-06 15:39 51.53162 -51.87440 32994 ft 521 kts 66°
2026-05-06 15:40 51.55975 -51.76618 33000 ft 521 kts 66°
2026-05-06 15:40 51.58741 -51.65923 33000 ft 522 kts 66°
2026-05-06 15:41 51.61518 -51.55138 33000 ft 522 kts 66°
2026-05-06 15:41 51.64290 -51.44317 33008 ft 522 kts 66°
2026-05-06 15:42 51.67047 -51.33501 33006 ft 521 kts 66°
2026-05-06 15:42 51.69784 -51.22713 32996 ft 519 kts 66°
2026-05-06 15:43 51.72501 -51.11955 33006 ft 517 kts 66°
2026-05-06 15:43 51.75203 -51.01201 33020 ft 516 kts 66°
2026-05-06 15:44 51.77893 -50.90447 33009 ft 516 kts 66°
2026-05-06 15:44 51.80567 -50.79702 33008 ft 515 kts 66°
2026-05-06 15:45 51.83212 -50.69026 33008 ft 515 kts 66°
2026-05-06 15:45 51.85866 -50.58258 33008 ft 515 kts 66°
2026-05-06 15:46 51.88513 -50.47464 33017 ft 516 kts 66°
2026-05-06 15:46 51.91151 -50.36656 33018 ft 516 kts 67°
2026-05-06 15:47 51.93778 -50.25837 33014 ft 516 kts 66°
2026-05-06 15:47 51.96396 -50.15007 33017 ft 516 kts 66°
2026-05-06 15:48 51.99003 -50.04168 33030 ft 516 kts 66°
2026-05-06 15:48 52.01129 -49.93033 33020 ft 518 kts 75°
2026-05-06 15:49 52.02722 -49.81629 33022 ft 518 kts 76°
2026-05-06 15:49 52.04296 -49.70219 33020 ft 518 kts 76°
2026-05-06 15:50 52.05884 -49.58885 33022 ft 518 kts 76°
2026-05-06 15:50 52.07492 -49.47470 33024 ft 519 kts 75°
2026-05-06 15:51 52.09097 -49.36020 33025 ft 519 kts 75°
2026-05-06 15:51 52.10688 -49.24569 33027 ft 520 kts 75°
2026-05-06 15:52 52.12270 -49.13086 33029 ft 520 kts 75°
2026-05-06 15:52 52.13838 -49.01601 33033 ft 520 kts 75°
2026-05-06 15:53 52.15396 -48.90103 33039 ft 520 kts 74°
2026-05-06 15:53 52.16944 -48.78592 33031 ft 520 kts 75°
2026-05-06 15:54 52.18482 -48.67066 33046 ft 520 kts 75°
2026-05-06 15:54 52.20008 -48.55528 33038 ft 520 kts 75°
2026-05-06 15:55 52.21520 -48.44008 33043 ft 519 kts 74°
2026-05-06 15:55 52.23011 -48.32560 33058 ft 519 kts 74°
2026-05-06 15:56 52.24508 -48.20968 33049 ft 519 kts 74°
2026-05-06 15:56 52.25975 -48.09515 33049 ft 518 kts 74°
2026-05-06 15:57 52.27440 -47.97985 33053 ft 518 kts 75°
2026-05-06 15:57 52.28891 -47.86463 33056 ft 518 kts 75°
2026-05-06 15:58 52.30334 -47.74912 33057 ft 519 kts 74°
2026-05-06 15:58 52.31767 -47.63341 33079 ft 520 kts 74°
2026-05-06 15:59 52.33191 -47.51749 33081 ft 520 kts 74°
2026-05-06 15:59 52.34607 -47.40123 33069 ft 521 kts 74°
2026-05-06 16:00 52.36010 -47.28498 33095 ft 521 kts 74°
2026-05-06 16:00 52.37404 -47.16843 33084 ft 522 kts 74°
2026-05-06 16:01 52.38790 -47.05159 33080 ft 523 kts 74°
2026-05-06 16:01 52.40166 -46.93448 33080 ft 524 kts 74°
2026-05-06 16:02 52.41530 -46.81727 33082 ft 524 kts 74°
2026-05-06 16:02 52.42880 -46.70017 33119 ft 523 kts 74°
2026-05-06 16:03 52.44220 -46.58297 33091 ft 522 kts 74°
2026-05-06 16:03 52.45543 -46.46618 33086 ft 520 kts 74°
2026-05-06 16:04 52.46850 -46.34962 33097 ft 519 kts 74°
2026-05-06 16:04 52.48143 -46.23337 33107 ft 518 kts 74°
2026-05-06 16:05 52.49424 -46.11714 33140 ft 518 kts 73°
2026-05-06 16:05 52.50692 -46.00087 33112 ft 517 kts 73°
2026-05-06 16:06 52.51948 -45.88460 33119 ft 516 kts 73°
2026-05-06 16:06 52.53182 -45.76926 33117 ft 515 kts 73°
2026-05-06 16:07 52.54418 -45.65266 33119 ft 514 kts 73°
2026-05-06 16:07 52.55632 -45.53696 33167 ft 514 kts 73°
2026-05-06 16:08 52.56829 -45.42172 33124 ft 514 kts 72°
2026-05-06 16:08 52.58021 -45.30597 33121 ft 513 kts 72°
2026-05-06 16:09 52.59199 -45.19023 33127 ft 513 kts 72°
2026-05-06 16:09 52.60366 -45.07453 33130 ft 513 kts 73°
2026-05-06 16:10 52.61521 -44.95885 33134 ft 513 kts 73°
2026-05-06 16:10 52.62665 -44.84296 33137 ft 513 kts 73°
2026-05-06 16:11 52.63799 -44.72700 33141 ft 513 kts 73°
2026-05-06 16:11 52.64923 -44.61082 33140 ft 514 kts 73°
2026-05-06 16:12 52.66029 -44.49522 33139 ft 514 kts 73°
2026-05-06 16:12 52.67131 -44.37876 33177 ft 514 kts 73°
2026-05-06 16:13 52.68221 -44.26230 33137 ft 513 kts 73°
2026-05-06 16:13 52.69293 -44.14624 33150 ft 511 kts 73°
2026-05-06 16:14 52.70350 -44.03074 33140 ft 508 kts 73°
2026-05-06 16:14 52.71393 -43.91557 33140 ft 506 kts 73°
2026-05-06 16:15 52.72248 -43.82027 33148 ft 505 kts 73°
2026-05-06 16:15 52.73268 -43.70553 33155 ft 506 kts 73°
2026-05-06 16:16 52.74283 -43.58985 33153 ft 506 kts 73°
2026-05-06 16:16 52.75275 -43.47550 33149 ft 506 kts 73°
2026-05-06 16:17 52.76262 -43.36040 33153 ft 507 kts 73°
2026-05-06 16:17 52.77238 -43.24514 33169 ft 507 kts 73°
2026-05-06 16:18 52.78206 -43.12949 33168 ft 509 kts 73°
2026-05-06 16:18 52.79164 -43.01356 33162 ft 509 kts 73°
2026-05-06 16:19 52.80110 -42.89763 33146 ft 509 kts 73°
2026-05-06 16:19 52.81046 -42.78162 33146 ft 509 kts 73°
2026-05-06 16:20 52.81969 -42.66566 33148 ft 509 kts 73°
2026-05-06 16:20 52.82882 -42.54957 33178 ft 509 kts 73°
2026-05-06 16:21 52.83786 -42.43331 33155 ft 510 kts 73°
2026-05-06 16:21 52.84678 -42.31676 33160 ft 511 kts 73°
2026-05-06 16:22 52.85562 -42.19991 33151 ft 512 kts 73°
2026-05-06 16:22 52.86435 -42.08291 33150 ft 513 kts 73°
2026-05-06 16:23 52.87298 -41.96559 33187 ft 514 kts 73°
2026-05-06 16:23 52.88155 -41.84772 33154 ft 517 kts 73°
2026-05-06 16:24 52.89001 -41.72946 33144 ft 518 kts 73°
2026-05-06 16:24 52.89832 -41.61155 33143 ft 519 kts 74°
2026-05-06 16:25 52.90657 -41.49273 33142 ft 519 kts 74°
2026-05-06 16:25 52.91472 -41.37376 33208 ft 519 kts 75°
2026-05-06 16:26 52.92271 -41.25507 33139 ft 517 kts 75°
2026-05-06 16:26 52.93052 -41.13703 33132 ft 513 kts 75°
2026-05-06 16:27 52.93820 -41.01974 33128 ft 511 kts 75°
2026-05-06 16:27 52.94574 -40.90283 33127 ft 510 kts 75°
2026-05-06 16:28 52.95318 -40.78587 33187 ft 510 kts 75°
2026-05-06 16:28 52.96050 -40.66882 33136 ft 511 kts 75°
2026-05-06 16:29 52.96769 -40.55160 33126 ft 510 kts 75°
2026-05-06 16:29 52.97476 -40.43445 33131 ft 510 kts 76°
2026-05-06 16:30 52.98056 -40.33698 33128 ft 510 kts 76°
2026-05-06 16:30 52.98853 -40.20083 33185 ft 509 kts 76°
2026-05-06 16:31 52.99529 -40.08357 33134 ft 510 kts 77°
2026-05-06 16:31 53.00387 -39.96723 33127 ft 502 kts 70°
2026-05-06 16:32 53.02003 -39.85505 33138 ft 498 kts 68°
2026-05-06 16:32 53.03661 -39.74322 33134 ft 499 kts 68°
2026-05-06 16:33 53.05282 -39.63112 33169 ft 499 kts 70°
2026-05-06 16:34 53.07652 -39.46294 33145 ft 500 kts 71°
2026-05-06 16:34 53.09220 -39.35024 33130 ft 500 kts 71°
2026-05-06 16:35 53.10778 -39.23747 33140 ft 499 kts 71°
2026-05-06 16:35 53.12324 -39.12487 33124 ft 499 kts 71°
2026-05-06 16:36 53.13860 -39.01219 33126 ft 499 kts 71°
2026-05-06 16:36 53.15385 -38.89949 33125 ft 499 kts 71°
2026-05-06 16:37 53.16900 -38.78664 33129 ft 499 kts 71°
2026-05-06 16:37 53.18403 -38.67377 33128 ft 499 kts 71°
2026-05-06 16:38 53.19889 -38.56138 33137 ft 499 kts 72°
2026-05-06 16:38 53.21372 -38.44821 33121 ft 498 kts 72°
2026-05-06 16:39 53.22839 -38.33534 33119 ft 497 kts 72°
2026-05-06 16:39 53.24293 -38.22263 33136 ft 496 kts 72°
2026-05-06 16:40 53.25735 -38.11000 33117 ft 496 kts 72°
2026-05-06 16:40 53.27167 -37.99727 33122 ft 496 kts 73°
2026-05-06 16:41 53.28587 -37.88458 33117 ft 495 kts 73°
2026-05-06 16:41 53.29994 -37.77189 33113 ft 495 kts 74°
2026-05-06 16:42 53.31391 -37.65910 33116 ft 495 kts 74°
2026-05-06 16:42 53.32776 -37.54644 33110 ft 495 kts 74°
2026-05-06 16:43 53.34151 -37.43367 33116 ft 495 kts 75°
2026-05-06 16:43 53.35516 -37.32071 33107 ft 495 kts 75°
2026-05-06 16:44 53.36867 -37.20788 33106 ft 494 kts 75°
2026-05-06 16:44 53.38206 -37.09509 33106 ft 493 kts 75°
2026-05-06 16:45 53.39536 -36.98224 33116 ft 493 kts 75°
2026-05-06 16:45 53.40853 -36.86950 33110 ft 493 kts 76°
2026-05-06 16:46 53.42150 -36.75740 33102 ft 492 kts 76°
2026-05-06 16:46 53.43450 -36.64407 33098 ft 491 kts 76°
2026-05-06 16:47 53.44723 -36.53216 33102 ft 491 kts 76°
2026-05-06 16:47 53.45992 -36.41958 33117 ft 491 kts 77°
2026-05-06 16:48 53.47250 -36.30706 33108 ft 491 kts 77°
2026-05-06 16:48 53.48495 -36.19450 33095 ft 490 kts 77°
2026-05-06 16:49 53.49732 -36.08177 33091 ft 490 kts 77°
2026-05-06 16:49 53.50956 -35.96919 33083 ft 490 kts 77°
2026-05-06 16:50 53.52168 -35.85667 33104 ft 489 kts 78°
2026-05-06 16:50 53.53369 -35.74412 33089 ft 489 kts 78°
2026-05-06 16:51 53.54558 -35.63159 33083 ft 488 kts 78°
2026-05-06 16:51 53.55735 -35.51914 33088 ft 488 kts 78°
2026-05-06 16:52 53.56901 -35.40674 33078 ft 488 kts 78°
2026-05-06 16:52 53.58056 -35.29429 33085 ft 488 kts 79°
2026-05-06 16:53 53.59200 -35.18184 33081 ft 488 kts 79°
2026-05-06 16:53 53.60327 -35.06994 33074 ft 487 kts 79°
2026-05-06 16:54 53.61450 -34.95739 33075 ft 487 kts 79°
2026-05-06 16:54 53.62562 -34.84479 33071 ft 487 kts 79°
2026-05-06 16:55 53.63663 -34.73222 33081 ft 487 kts 79°
2026-05-06 16:55 53.64752 -34.61969 33064 ft 486 kts 79°
2026-05-06 16:56 53.65828 -34.50728 33065 ft 485 kts 79°
2026-05-06 16:56 53.66893 -34.39504 33060 ft 484 kts 80°
2026-05-06 16:57 53.67944 -34.28298 33058 ft 483 kts 80°
2026-05-06 16:57 53.68984 -34.17101 33069 ft 482 kts 80°
2026-05-06 16:58 53.69839 -34.07803 33055 ft 482 kts 81°
2026-05-06 16:58 53.70855 -33.96654 33050 ft 480 kts 81°
2026-05-06 16:59 53.71856 -33.85528 33050 ft 479 kts 81°
2026-05-06 16:59 53.72847 -33.74409 33050 ft 478 kts 81°
2026-05-06 17:00 53.73825 -33.63307 33037 ft 478 kts 81°
2026-05-06 17:00 53.74794 -33.52193 33047 ft 478 kts 81°
2026-05-06 17:01 53.75755 -33.41054 33043 ft 479 kts 81°
2026-05-06 17:01 53.76706 -33.29903 33041 ft 479 kts 81°
2026-05-06 17:02 53.77640 -33.18813 33041 ft 480 kts 81°
2026-05-06 17:02 53.78572 -33.07640 33035 ft 480 kts 82°
2026-05-06 17:03 53.79494 -32.96450 33031 ft 480 kts 82°
2026-05-06 17:03 53.80405 -32.85253 33030 ft 480 kts 82°
2026-05-06 17:04 53.81304 -32.74072 33026 ft 480 kts 82°
2026-05-06 17:04 53.82193 -32.62883 33027 ft 479 kts 82°
2026-05-06 17:05 53.83072 -32.51691 33025 ft 479 kts 82°
2026-05-06 17:05 53.83940 -32.40501 33020 ft 479 kts 82°
2026-05-06 17:06 53.84796 -32.29321 33023 ft 479 kts 83°
2026-05-06 17:06 53.85641 -32.18140 33018 ft 479 kts 83°